Year,Month,Day,Hour,Minute,Value (Times are PST for temperature in C)
2009,05,23,00,00,10.40
2009,05,23,00,01,10.40
2009,05,23,00,02,10.40
2009,05,23,00,03,10.40
2009,05,23,00,04,10.40
2009,05,23,00,05,10.40
2009,05,23,00,06,10.40
2009,05,23,00,07,10.40
2009,05,23,00,08,10.40
2009,05,23,00,09,10.40
2009,05,23,00,10,10.40
2009,05,23,00,11,10.40
2009,05,23,00,12,10.40
2009,05,23,00,13,10.40
2009,05,23,00,14,10.40
2009,05,23,00,15,10.40
2009,05,23,00,16,10.40
2009,05,23,00,17,10.40
2009,05,23,00,18,10.30
2009,05,23,00,19,10.30
2009,05,23,00,20,10.30
2009,05,23,00,21,10.30
2009,05,23,00,22,10.30
2009,05,23,00,23,10.20
2009,05,23,00,24,10.20
2009,05,23,00,25,10.20
2009,05,23,00,26,10.20
2009,05,23,00,27,10.10
2009,05,23,00,28,10.10
2009,05,23,00,29,10.10
2009,05,23,00,30,10.10
2009,05,23,00,31,10.00
2009,05,23,00,32,9.90
2009,05,23,00,33,9.90
2009,05,23,00,34,9.80
2009,05,23,00,35,9.70
2009,05,23,00,36,9.70
2009,05,23,00,37,9.60
2009,05,23,00,38,9.50
2009,05,23,00,39,9.40
2009,05,23,00,40,9.30
2009,05,23,00,41,9.20
2009,05,23,00,42,9.20
2009,05,23,00,43,9.10
2009,05,23,00,44,9.10
2009,05,23,00,45,9.00
2009,05,23,00,46,9.00
2009,05,23,00,47,8.90
2009,05,23,00,48,8.80
2009,05,23,00,49,8.80
2009,05,23,00,50,8.70
2009,05,23,00,51,8.70
2009,05,23,00,52,8.60
2009,05,23,00,53,8.60
2009,05,23,00,54,8.50
2009,05,23,00,55,8.50
2009,05,23,00,56,8.40
2009,05,23,00,57,8.40
2009,05,23,00,58,8.30
2009,05,23,00,59,8.30
2009,05,23,01,00,8.20
2009,05,23,01,01,8.20
2009,05,23,01,02,8.20
2009,05,23,01,03,8.20
2009,05,23,01,04,8.20
2009,05,23,01,05,8.10
2009,05,23,01,06,8.10
2009,05,23,01,07,8.10
2009,05,23,01,08,8.10
2009,05,23,01,09,8.00
2009,05,23,01,10,8.00
2009,05,23,01,11,8.00
2009,05,23,01,12,7.90
2009,05,23,01,13,7.90
2009,05,23,01,14,7.90
2009,05,23,01,15,7.80
2009,05,23,01,16,7.80
2009,05,23,01,17,7.80
2009,05,23,01,18,7.80
2009,05,23,01,19,7.80
2009,05,23,01,20,7.80
2009,05,23,01,21,7.70
2009,05,23,01,22,7.70
2009,05,23,01,23,7.70
2009,05,23,01,24,7.60
2009,05,23,01,25,7.60
2009,05,23,01,26,7.60
2009,05,23,01,27,7.50
2009,05,23,01,28,7.50
2009,05,23,01,29,7.50
2009,05,23,01,30,7.40
2009,05,23,01,31,7.40
2009,05,23,01,32,7.40
2009,05,23,01,33,7.30
2009,05,23,01,34,7.30
2009,05,23,01,35,7.30
2009,05,23,01,36,7.30
2009,05,23,01,37,7.30
2009,05,23,01,38,7.20
2009,05,23,01,39,7.20
2009,05,23,01,40,7.20
2009,05,23,01,41,7.20
2009,05,23,01,42,7.10
2009,05,23,01,43,7.10
2009,05,23,01,44,7.10
2009,05,23,01,45,7.10
2009,05,23,01,46,7.00
2009,05,23,01,47,7.00
2009,05,23,01,48,7.00
2009,05,23,01,49,7.00
2009,05,23,01,50,7.00
2009,05,23,01,51,6.90
2009,05,23,01,52,6.90
2009,05,23,01,53,6.90
2009,05,23,01,54,6.90
2009,05,23,01,55,6.80
2009,05,23,01,56,6.80
2009,05,23,01,57,6.80
2009,05,23,01,58,6.80
2009,05,23,01,59,6.80
2009,05,23,02,00,6.80
2009,05,23,02,01,6.80
2009,05,23,02,02,6.80
2009,05,23,02,03,6.80
2009,05,23,02,04,6.80
2009,05,23,02,05,6.70
2009,05,23,02,06,6.70
2009,05,23,02,07,6.70
2009,05,23,02,08,6.70
2009,05,23,02,09,6.70
2009,05,23,02,10,6.70
2009,05,23,02,11,6.70
2009,05,23,02,12,6.70
2009,05,23,02,13,6.70
2009,05,23,02,14,6.70
2009,05,23,02,15,6.70
2009,05,23,02,16,6.70
2009,05,23,02,17,6.70
2009,05,23,02,18,6.70
2009,05,23,02,19,6.70
2009,05,23,02,20,6.70
2009,05,23,02,21,6.70
2009,05,23,02,22,6.70
2009,05,23,02,23,6.70
2009,05,23,02,24,6.70
2009,05,23,02,25,6.70
2009,05,23,02,26,6.60
2009,05,23,02,27,6.60
2009,05,23,02,28,6.60
2009,05,23,02,29,6.60
2009,05,23,02,30,6.60
2009,05,23,02,31,6.60
2009,05,23,02,32,6.60
2009,05,23,02,33,6.60
2009,05,23,02,34,6.50
2009,05,23,02,35,6.40
2009,05,23,02,36,6.40
2009,05,23,02,37,6.40
2009,05,23,02,38,6.40
2009,05,23,02,39,6.40
2009,05,23,02,40,6.40
2009,05,23,02,41,6.40
2009,05,23,02,42,6.40
2009,05,23,02,43,6.40
2009,05,23,02,44,6.40
2009,05,23,02,45,6.40
2009,05,23,02,46,6.40
2009,05,23,02,47,6.40
2009,05,23,02,48,6.40
2009,05,23,02,49,6.40
2009,05,23,02,50,6.40
2009,05,23,02,51,6.40
2009,05,23,02,52,6.40
2009,05,23,02,53,6.40
2009,05,23,02,54,6.40
2009,05,23,02,55,6.40
2009,05,23,02,56,6.40
2009,05,23,02,57,6.30
2009,05,23,02,58,6.30
2009,05,23,02,59,6.30
2009,05,23,03,00,6.30
2009,05,23,03,01,6.30
2009,05,23,03,02,6.30
2009,05,23,03,03,6.30
2009,05,23,03,04,6.30
2009,05,23,03,05,6.30
2009,05,23,03,06,6.30
2009,05,23,03,07,6.30
2009,05,23,03,08,6.30
2009,05,23,03,09,6.30
2009,05,23,03,10,6.30
2009,05,23,03,11,6.30
2009,05,23,03,12,6.20
2009,05,23,03,13,6.20
2009,05,23,03,14,6.20
2009,05,23,03,15,6.20
2009,05,23,03,16,6.20
2009,05,23,03,17,6.30
2009,05,23,03,18,6.30
2009,05,23,03,19,6.30
2009,05,23,03,20,6.30
2009,05,23,03,21,6.30
2009,05,23,03,22,6.30
2009,05,23,03,23,6.30
2009,05,23,03,24,6.30
2009,05,23,03,25,6.20
2009,05,23,03,26,6.20
2009,05,23,03,27,6.20
2009,05,23,03,28,6.20
2009,05,23,03,29,6.20
2009,05,23,03,30,6.20
2009,05,23,03,31,6.20
2009,05,23,03,32,6.20
2009,05,23,03,33,6.20
2009,05,23,03,34,6.20
2009,05,23,03,35,6.20
2009,05,23,03,36,6.20
2009,05,23,03,37,6.20
2009,05,23,03,38,6.20
2009,05,23,03,39,6.20
2009,05,23,03,40,6.20
2009,05,23,03,41,6.20
2009,05,23,03,42,6.20
2009,05,23,03,43,6.20
2009,05,23,03,44,6.10
2009,05,23,03,45,6.10
2009,05,23,03,46,6.10
2009,05,23,03,47,6.10
2009,05,23,03,48,6.10
2009,05,23,03,49,6.10
2009,05,23,03,50,6.10
2009,05,23,03,51,6.10
2009,05,23,03,52,6.00
2009,05,23,03,53,6.00
2009,05,23,03,54,6.00
2009,05,23,03,55,6.00
2009,05,23,03,56,6.00
2009,05,23,03,57,6.00
2009,05,23,03,58,6.00
2009,05,23,03,59,6.00
2009,05,23,04,00,6.00
2009,05,23,04,01,6.00
2009,05,23,04,02,6.00
2009,05,23,04,03,6.00
2009,05,23,04,04,6.00
2009,05,23,04,05,6.00
2009,05,23,04,06,6.00
2009,05,23,04,07,6.00
2009,05,23,04,08,5.90
2009,05,23,04,09,5.90
2009,05,23,04,10,5.90
2009,05,23,04,11,5.90
2009,05,23,04,12,5.90
2009,05,23,04,13,5.90
2009,05,23,04,14,5.90
2009,05,23,04,15,5.90
2009,05,23,04,16,5.90
2009,05,23,04,17,5.90
2009,05,23,04,18,5.80
2009,05,23,04,19,5.80
2009,05,23,04,20,5.80
2009,05,23,04,21,5.80
2009,05,23,04,22,5.80
2009,05,23,04,23,5.80
2009,05,23,04,24,5.80
2009,05,23,04,25,5.80
2009,05,23,04,26,5.80
2009,05,23,04,27,5.80
2009,05,23,04,28,5.80
2009,05,23,04,29,5.70
2009,05,23,04,30,5.70
2009,05,23,04,31,5.70
2009,05,23,04,32,5.70
2009,05,23,04,33,5.70
2009,05,23,04,34,5.70
2009,05,23,04,35,5.70
2009,05,23,04,36,5.70
2009,05,23,04,37,5.70
2009,05,23,04,38,5.70
2009,05,23,04,39,5.70
2009,05,23,04,40,5.70
2009,05,23,04,41,5.70
2009,05,23,04,42,5.70
2009,05,23,04,43,5.70
2009,05,23,04,44,5.70
2009,05,23,04,45,5.70
2009,05,23,04,46,5.70
2009,05,23,04,47,5.70
2009,05,23,04,48,5.70
2009,05,23,04,49,5.70
2009,05,23,04,50,5.60
2009,05,23,04,51,5.60
2009,05,23,04,52,5.60
2009,05,23,04,53,5.60
2009,05,23,04,54,5.60
2009,05,23,04,55,5.60
2009,05,23,04,56,5.60
2009,05,23,04,57,5.60
2009,05,23,04,58,5.60
2009,05,23,04,59,5.60
2009,05,23,05,00,5.50
2009,05,23,05,01,5.50
2009,05,23,05,02,5.50
2009,05,23,05,03,5.50
2009,05,23,05,04,5.50
2009,05,23,05,05,5.50
2009,05,23,05,06,5.50
2009,05,23,05,07,5.50
2009,05,23,05,08,5.50
2009,05,23,05,09,5.50
2009,05,23,05,10,5.50
2009,05,23,05,11,5.50
2009,05,23,05,12,5.50
2009,05,23,05,13,5.50
2009,05,23,05,14,5.50
2009,05,23,05,15,5.50
2009,05,23,05,16,5.60
2009,05,23,05,17,5.60
2009,05,23,05,18,5.60
2009,05,23,05,19,5.60
2009,05,23,05,20,5.60
2009,05,23,05,21,5.60
2009,05,23,05,22,5.70
2009,05,23,05,23,5.70
2009,05,23,05,24,5.70
2009,05,23,05,25,5.70
2009,05,23,05,26,5.70
2009,05,23,05,27,5.70
2009,05,23,05,28,5.70
2009,05,23,05,29,5.60
2009,05,23,05,30,5.60
2009,05,23,05,31,5.60
2009,05,23,05,32,5.60
2009,05,23,05,33,5.60
2009,05,23,05,34,5.60
2009,05,23,05,35,5.60
2009,05,23,05,36,5.60
2009,05,23,05,37,5.60
2009,05,23,05,38,5.60
2009,05,23,05,39,5.60
2009,05,23,05,40,5.60
2009,05,23,05,41,5.60
2009,05,23,05,42,5.60
2009,05,23,05,43,5.70
2009,05,23,05,44,5.70
2009,05,23,05,45,5.70
2009,05,23,05,46,5.70
2009,05,23,05,47,5.70
2009,05,23,05,48,5.70
2009,05,23,05,49,5.70
2009,05,23,05,50,5.70
2009,05,23,05,51,5.70
2009,05,23,05,52,5.70
2009,05,23,05,53,5.70
2009,05,23,05,54,5.70
2009,05,23,05,55,5.70
2009,05,23,05,56,5.70
2009,05,23,05,57,5.80
2009,05,23,05,58,5.80
2009,05,23,05,59,5.80
2009,05,23,06,00,5.80
2009,05,23,06,01,5.80
2009,05,23,06,02,5.90
2009,05,23,06,03,5.90
2009,05,23,06,04,6.00
2009,05,23,06,05,6.00
2009,05,23,06,06,6.10
2009,05,23,06,07,6.10
2009,05,23,06,08,6.20
2009,05,23,06,09,6.20
2009,05,23,06,10,6.20
2009,05,23,06,11,6.20
2009,05,23,06,12,6.20
2009,05,23,06,13,6.20
2009,05,23,06,14,6.20
2009,05,23,06,15,6.20
2009,05,23,06,16,6.20
2009,05,23,06,17,6.20
2009,05,23,06,18,6.20
2009,05,23,06,19,6.20
2009,05,23,06,20,6.20
2009,05,23,06,21,6.20
2009,05,23,06,22,6.20
2009,05,23,06,23,6.30
2009,05,23,06,24,6.30
2009,05,23,06,25,6.30
2009,05,23,06,26,6.30
2009,05,23,06,27,6.30
2009,05,23,06,28,6.30
2009,05,23,06,29,6.30
2009,05,23,06,30,6.30
2009,05,23,06,31,6.40
2009,05,23,06,32,6.40
2009,05,23,06,33,6.40
2009,05,23,06,34,6.40
2009,05,23,06,35,6.40
2009,05,23,06,36,6.40
2009,05,23,06,37,6.40
2009,05,23,06,38,6.50
2009,05,23,06,39,6.60
2009,05,23,06,40,6.60
2009,05,23,06,41,6.60
2009,05,23,06,42,6.60
2009,05,23,06,43,6.60
2009,05,23,06,44,6.60
2009,05,23,06,45,6.70
2009,05,23,06,46,6.70
2009,05,23,06,47,6.70
2009,05,23,06,48,6.80
2009,05,23,06,49,6.80
2009,05,23,06,50,6.80
2009,05,23,06,51,6.80
2009,05,23,06,52,6.80
2009,05,23,06,53,6.90
2009,05,23,06,54,6.90
2009,05,23,06,55,7.00
2009,05,23,06,56,7.00
2009,05,23,06,57,7.00
2009,05,23,06,58,7.10
2009,05,23,06,59,7.10
2009,05,23,07,00,7.10
2009,05,23,07,01,7.20
2009,05,23,07,02,7.20
2009,05,23,07,03,7.30
2009,05,23,07,04,7.30
2009,05,23,07,05,7.30
2009,05,23,07,06,7.30
2009,05,23,07,07,7.40
2009,05,23,07,08,7.40
2009,05,23,07,09,7.50
2009,05,23,07,10,7.50
2009,05,23,07,11,7.60
2009,05,23,07,12,7.60
2009,05,23,07,13,7.70
2009,05,23,07,14,7.80
2009,05,23,07,15,7.80
2009,05,23,07,16,7.90
2009,05,23,07,17,7.90
2009,05,23,07,18,8.00
2009,05,23,07,19,8.10
2009,05,23,07,20,8.20
2009,05,23,07,21,8.40
2009,05,23,07,22,8.50
2009,05,23,07,23,8.60
2009,05,23,07,24,8.70
2009,05,23,07,25,8.90
2009,05,23,07,26,9.00
2009,05,23,07,27,9.10
2009,05,23,07,28,9.20
2009,05,23,07,29,9.30
2009,05,23,07,30,9.40
2009,05,23,07,31,9.50
2009,05,23,07,32,9.60
2009,05,23,07,33,9.70
2009,05,23,07,34,9.80
2009,05,23,07,35,9.90
2009,05,23,07,36,10.00
2009,05,23,07,37,10.10
2009,05,23,07,38,10.10
2009,05,23,07,39,10.20
2009,05,23,07,40,10.20
2009,05,23,07,41,10.30
2009,05,23,07,42,10.30
2009,05,23,07,43,10.40
2009,05,23,07,44,10.40
2009,05,23,07,45,10.40
2009,05,23,07,46,10.40
2009,05,23,07,47,10.40
2009,05,23,07,48,10.50
2009,05,23,07,49,10.60
2009,05,23,07,50,10.60
2009,05,23,07,51,10.60
2009,05,23,07,52,10.60
2009,05,23,07,53,10.70
2009,05,23,07,54,10.70
2009,05,23,07,55,10.70
2009,05,23,07,56,10.70
2009,05,23,07,57,10.80
2009,05,23,07,58,10.90
2009,05,23,07,59,10.90
2009,05,23,08,00,10.90
2009,05,23,08,01,10.90
2009,05,23,08,02,10.90
2009,05,23,08,03,10.90
2009,05,23,08,04,10.90
2009,05,23,08,05,10.90
2009,05,23,08,06,11.00
2009,05,23,08,07,11.10
2009,05,23,08,08,11.10
2009,05,23,08,09,11.10
2009,05,23,08,10,11.20
2009,05,23,08,11,11.30
2009,05,23,08,12,11.40
2009,05,23,08,13,11.50
2009,05,23,08,14,11.60
2009,05,23,08,15,11.70
2009,05,23,08,16,11.80
2009,05,23,08,17,11.80
2009,05,23,08,18,11.90
2009,05,23,08,19,12.00
2009,05,23,08,20,12.10
2009,05,23,08,21,12.20
2009,05,23,08,22,12.30
2009,05,23,08,23,12.40
2009,05,23,08,24,12.50
2009,05,23,08,25,12.50
2009,05,23,08,26,12.60
2009,05,23,08,27,12.60
2009,05,23,08,28,12.60
2009,05,23,08,29,12.70
2009,05,23,08,30,12.80
2009,05,23,08,31,12.80
2009,05,23,08,32,12.80
2009,05,23,08,33,12.90
2009,05,23,08,34,12.90
2009,05,23,08,35,13.00
2009,05,23,08,36,13.00
2009,05,23,08,37,13.10
2009,05,23,08,38,13.20
2009,05,23,08,39,13.20
2009,05,23,08,40,13.30
2009,05,23,08,41,13.30
2009,05,23,08,42,13.40
2009,05,23,08,43,13.50
2009,05,23,08,44,13.60
2009,05,23,08,45,13.70
2009,05,23,08,46,13.70
2009,05,23,08,47,13.70
2009,05,23,08,48,13.80
2009,05,23,08,49,13.80
2009,05,23,08,50,13.90
2009,05,23,08,51,13.90
2009,05,23,08,52,13.90
2009,05,23,08,53,13.90
2009,05,23,08,54,14.00
2009,05,23,08,55,14.00
2009,05,23,08,56,14.00
2009,05,23,08,57,14.10
2009,05,23,08,58,14.20
2009,05,23,08,59,14.20
2009,05,23,09,00,14.30
2009,05,23,09,01,14.30
2009,05,23,09,02,14.30
2009,05,23,09,03,14.40
2009,05,23,09,04,14.40
2009,05,23,09,05,14.50
2009,05,23,09,06,14.50
2009,05,23,09,07,14.50
2009,05,23,09,08,14.50
2009,05,23,09,09,14.60
2009,05,23,09,10,14.60
2009,05,23,09,11,14.70
2009,05,23,09,12,14.70
2009,05,23,09,13,14.80
2009,05,23,09,14,14.80
2009,05,23,09,15,14.80
2009,05,23,09,16,14.90
2009,05,23,09,17,14.90
2009,05,23,09,18,14.90
2009,05,23,09,19,15.00
2009,05,23,09,20,15.00
2009,05,23,09,21,15.00
2009,05,23,09,22,15.00
2009,05,23,09,23,15.10
2009,05,23,09,24,15.10
2009,05,23,09,25,15.10
2009,05,23,09,26,15.10
2009,05,23,09,27,15.20
2009,05,23,09,28,15.20
2009,05,23,09,29,15.20
2009,05,23,09,30,15.30
2009,05,23,09,31,15.30
2009,05,23,09,32,15.40
2009,05,23,09,33,15.50
2009,05,23,09,34,15.50
2009,05,23,09,35,15.60
2009,05,23,09,36,15.60
2009,05,23,09,37,15.70
2009,05,23,09,38,15.80
2009,05,23,09,39,15.80
2009,05,23,09,40,15.80
2009,05,23,09,41,15.80
2009,05,23,09,42,15.90
2009,05,23,09,43,16.00
2009,05,23,09,44,16.10
2009,05,23,09,45,16.10
2009,05,23,09,46,16.10
2009,05,23,09,47,16.10
2009,05,23,09,48,16.20
2009,05,23,09,49,16.20
2009,05,23,09,50,16.30
2009,05,23,09,51,16.40
2009,05,23,09,52,16.40
2009,05,23,09,53,16.40
2009,05,23,09,54,16.50
2009,05,23,09,55,16.60
2009,05,23,09,56,16.60
2009,05,23,09,57,16.60
2009,05,23,09,58,16.60
2009,05,23,09,59,16.60
2009,05,23,10,00,16.60
2009,05,23,10,01,16.60
2009,05,23,10,02,16.70
2009,05,23,10,03,16.70
2009,05,23,10,04,16.70
2009,05,23,10,05,16.70
2009,05,23,10,06,16.70
2009,05,23,10,07,16.70
2009,05,23,10,08,16.70
2009,05,23,10,09,16.70
2009,05,23,10,10,16.70
2009,05,23,10,11,16.70
2009,05,23,10,12,16.70
2009,05,23,10,13,16.70
2009,05,23,10,14,16.80
2009,05,23,10,15,16.80
2009,05,23,10,16,16.90
2009,05,23,10,17,16.90
2009,05,23,10,18,16.90
2009,05,23,10,19,17.00
2009,05,23,10,20,17.00
2009,05,23,10,21,17.10
2009,05,23,10,22,17.10
2009,05,23,10,23,17.20
2009,05,23,10,24,17.20
2009,05,23,10,25,17.20
2009,05,23,10,26,17.20
2009,05,23,10,27,17.20
2009,05,23,10,28,17.20
2009,05,23,10,29,17.30
2009,05,23,10,30,17.30
2009,05,23,10,31,17.30
2009,05,23,10,32,17.30
2009,05,23,10,33,17.30
2009,05,23,10,34,17.30
2009,05,23,10,35,17.30
2009,05,23,10,36,17.30
2009,05,23,10,37,17.30
2009,05,23,10,38,17.30
2009,05,23,10,39,17.30
2009,05,23,10,40,17.30
2009,05,23,10,41,17.30
2009,05,23,10,42,17.20
2009,05,23,10,43,17.20
2009,05,23,10,44,17.20
2009,05,23,10,45,17.10
2009,05,23,10,46,17.10
2009,05,23,10,47,16.90
2009,05,23,10,48,16.80
2009,05,23,10,49,16.80
2009,05,23,10,50,16.90
2009,05,23,10,51,17.00
2009,05,23,10,52,17.00
2009,05,23,10,53,17.10
2009,05,23,10,54,17.10
2009,05,23,10,55,17.20
2009,05,23,10,56,17.20
2009,05,23,10,57,17.30
2009,05,23,10,58,17.30
2009,05,23,10,59,17.40
2009,05,23,11,00,17.40
2009,05,23,11,01,17.40
2009,05,23,11,02,17.50
2009,05,23,11,03,17.50
2009,05,23,11,04,17.60
2009,05,23,11,05,17.60
2009,05,23,11,06,17.60
2009,05,23,11,07,17.70
2009,05,23,11,08,17.70
2009,05,23,11,09,17.80
2009,05,23,11,10,17.80
2009,05,23,11,11,17.80
2009,05,23,11,12,17.80
2009,05,23,11,13,17.80
2009,05,23,11,14,17.90
2009,05,23,11,15,17.90
2009,05,23,11,16,17.90
2009,05,23,11,17,17.90
2009,05,23,11,18,17.90
2009,05,23,11,19,17.90
2009,05,23,11,20,17.90
2009,05,23,11,21,17.90
2009,05,23,11,22,18.00
2009,05,23,11,23,18.10
2009,05,23,11,24,18.10
2009,05,23,11,25,18.20
2009,05,23,11,26,18.20
2009,05,23,11,27,18.20
2009,05,23,11,28,18.20
2009,05,23,11,29,18.20
2009,05,23,11,30,18.20
2009,05,23,11,31,18.10
2009,05,23,11,32,18.10
2009,05,23,11,33,18.00
2009,05,23,11,34,17.90
2009,05,23,11,35,18.00
2009,05,23,11,36,18.10
2009,05,23,11,37,18.00
2009,05,23,11,38,17.90
2009,05,23,11,39,18.00
2009,05,23,11,40,18.10
2009,05,23,11,41,18.10
2009,05,23,11,42,18.10
2009,05,23,11,43,18.20
2009,05,23,11,44,18.30
2009,05,23,11,45,18.40
2009,05,23,11,46,18.40
2009,05,23,11,47,18.40
2009,05,23,11,48,18.40
2009,05,23,11,49,18.40
2009,05,23,11,50,18.30
2009,05,23,11,51,18.30
2009,05,23,11,52,18.30
2009,05,23,11,53,18.30
2009,05,23,11,54,18.30
2009,05,23,11,55,18.40
2009,05,23,11,56,18.40
2009,05,23,11,57,18.30
2009,05,23,11,58,18.30
2009,05,23,11,59,18.30
2009,05,23,12,00,18.30
2009,05,23,12,01,18.20
2009,05,23,12,02,18.10
2009,05,23,12,03,18.10
2009,05,23,12,04,18.10
2009,05,23,12,05,18.10
2009,05,23,12,06,18.10
2009,05,23,12,07,18.10
2009,05,23,12,08,18.20
2009,05,23,12,09,18.20
2009,05,23,12,10,18.20
2009,05,23,12,11,18.20
2009,05,23,12,12,18.30
2009,05,23,12,13,18.30
2009,05,23,12,14,18.40
2009,05,23,12,15,18.40
2009,05,23,12,16,18.30
2009,05,23,12,17,18.20
2009,05,23,12,18,18.20
2009,05,23,12,19,18.20
2009,05,23,12,20,18.20
2009,05,23,12,21,18.20
2009,05,23,12,22,18.20
2009,05,23,12,23,18.20
2009,05,23,12,24,18.20
2009,05,23,12,25,18.20
2009,05,23,12,26,18.20
2009,05,23,12,27,18.20
2009,05,23,12,28,18.20
2009,05,23,12,29,18.20
2009,05,23,12,30,18.20
2009,05,23,12,31,18.20
2009,05,23,12,32,18.20
2009,05,23,12,33,18.20
2009,05,23,12,34,18.20
2009,05,23,12,35,18.20
2009,05,23,12,36,18.20
2009,05,23,12,37,18.20
2009,05,23,12,38,18.20
2009,05,23,12,39,18.30
2009,05,23,12,40,18.40
2009,05,23,12,41,18.40
2009,05,23,12,42,18.40
2009,05,23,12,43,18.50
2009,05,23,12,44,18.50
2009,05,23,12,45,18.60
2009,05,23,12,46,18.70
2009,05,23,12,47,18.80
2009,05,23,12,48,18.90
2009,05,23,12,49,19.00
2009,05,23,12,50,19.10
2009,05,23,12,51,19.10
2009,05,23,12,52,19.20
2009,05,23,12,53,19.20
2009,05,23,12,54,19.10
2009,05,23,12,55,19.10
2009,05,23,12,56,19.10
2009,05,23,12,57,19.10
2009,05,23,12,58,19.10
2009,05,23,12,59,19.00
2009,05,23,13,00,18.90
2009,05,23,13,01,19.00
2009,05,23,13,02,19.10
2009,05,23,13,03,19.10
2009,05,23,13,04,19.10
2009,05,23,13,05,19.20
2009,05,23,13,06,19.30
2009,05,23,13,07,19.40
2009,05,23,13,08,19.50
2009,05,23,13,09,19.50
2009,05,23,13,10,19.50
2009,05,23,13,11,19.50
2009,05,23,13,12,19.40
2009,05,23,13,13,19.40
2009,05,23,13,14,19.50
2009,05,23,13,15,19.50
2009,05,23,13,16,19.60
2009,05,23,13,17,19.70
2009,05,23,13,18,19.80
2009,05,23,13,19,19.80
2009,05,23,13,20,19.80
2009,05,23,13,21,19.70
2009,05,23,13,22,19.70
2009,05,23,13,23,19.60
2009,05,23,13,24,19.50
2009,05,23,13,25,19.50
2009,05,23,13,26,19.50
2009,05,23,13,27,19.50
2009,05,23,13,28,19.60
2009,05,23,13,29,19.60
2009,05,23,13,30,19.70
2009,05,23,13,31,19.80
2009,05,23,13,32,19.90
2009,05,23,13,33,20.10
2009,05,23,13,34,20.20
2009,05,23,13,35,20.30
2009,05,23,13,36,20.20
2009,05,23,13,37,20.20
2009,05,23,13,38,20.20
2009,05,23,13,39,20.10
2009,05,23,13,40,20.10
2009,05,23,13,41,20.10
2009,05,23,13,42,20.10
2009,05,23,13,43,20.10
2009,05,23,13,44,19.90
2009,05,23,13,45,19.90
2009,05,23,13,46,19.80
2009,05,23,13,47,19.80
2009,05,23,13,48,19.80
2009,05,23,13,49,19.80
2009,05,23,13,50,19.90
2009,05,23,13,51,19.90
2009,05,23,13,52,20.00
2009,05,23,13,53,20.10
2009,05,23,13,54,20.10
2009,05,23,13,55,20.10
2009,05,23,13,56,20.10
2009,05,23,13,57,20.00
2009,05,23,13,58,19.90
2009,05,23,13,59,19.90
2009,05,23,14,00,19.90
2009,05,23,14,01,19.90
2009,05,23,14,02,19.90
2009,05,23,14,03,19.90
2009,05,23,14,04,19.90
2009,05,23,14,05,19.90
2009,05,23,14,06,19.90
2009,05,23,14,07,19.70
2009,05,23,14,08,19.60
2009,05,23,14,09,19.60
2009,05,23,14,10,19.50
2009,05,23,14,11,19.50
2009,05,23,14,12,19.50
2009,05,23,14,13,19.60
2009,05,23,14,14,19.60
2009,05,23,14,15,19.70
2009,05,23,14,16,19.90
2009,05,23,14,17,20.00
2009,05,23,14,18,20.20
2009,05,23,14,19,20.20
2009,05,23,14,20,20.20
2009,05,23,14,21,20.20
2009,05,23,14,22,20.30
2009,05,23,14,23,20.50
2009,05,23,14,24,20.50
2009,05,23,14,25,20.50
2009,05,23,14,26,20.50
2009,05,23,14,27,20.50
2009,05,23,14,28,20.50
2009,05,23,14,29,20.50
2009,05,23,14,30,20.50
2009,05,23,14,31,20.50
2009,05,23,14,32,20.50
2009,05,23,14,33,20.60
2009,05,23,14,34,20.60
2009,05,23,14,35,20.60
2009,05,23,14,36,20.60
2009,05,23,14,37,20.50
2009,05,23,14,38,20.50
2009,05,23,14,39,20.60
2009,05,23,14,40,20.60
2009,05,23,14,41,20.70
2009,05,23,14,42,20.70
2009,05,23,14,43,20.80
2009,05,23,14,44,20.90
2009,05,23,14,45,20.90
2009,05,23,14,46,21.00
2009,05,23,14,47,21.10
2009,05,23,14,48,21.20
2009,05,23,14,49,21.10
2009,05,23,14,50,21.10
2009,05,23,14,51,21.10
2009,05,23,14,52,21.00
2009,05,23,14,53,21.00
2009,05,23,14,54,20.90
2009,05,23,14,55,20.90
2009,05,23,14,56,21.00
2009,05,23,14,57,21.00
2009,05,23,14,58,21.00
2009,05,23,14,59,21.10
2009,05,23,15,00,21.10
2009,05,23,15,01,21.20
2009,05,23,15,02,21.20
2009,05,23,15,03,21.30
2009,05,23,15,04,21.30
2009,05,23,15,05,21.30
2009,05,23,15,06,21.30
2009,05,23,15,07,21.20
2009,05,23,15,08,21.20
2009,05,23,15,09,21.20
2009,05,23,15,10,21.20
2009,05,23,15,11,21.20
2009,05,23,15,12,21.20
2009,05,23,15,13,21.20
2009,05,23,15,14,21.30
2009,05,23,15,15,21.30
2009,05,23,15,16,21.30
2009,05,23,15,17,21.30
2009,05,23,15,18,21.40
2009,05,23,15,19,21.40
2009,05,23,15,20,21.40
2009,05,23,15,21,21.30
2009,05,23,15,22,21.30
2009,05,23,15,23,21.30
2009,05,23,15,24,21.30
2009,05,23,15,25,21.30
2009,05,23,15,26,21.20
2009,05,23,15,27,21.10
2009,05,23,15,28,21.00
2009,05,23,15,29,21.00
2009,05,23,15,30,20.90
2009,05,23,15,31,20.90
2009,05,23,15,32,21.00
2009,05,23,15,33,21.00
2009,05,23,15,34,21.10
2009,05,23,15,35,21.10
2009,05,23,15,36,21.20
2009,05,23,15,37,21.10
2009,05,23,15,38,21.10
2009,05,23,15,39,21.10
2009,05,23,15,40,21.10
2009,05,23,15,41,21.10
2009,05,23,15,42,21.10
2009,05,23,15,43,21.10
2009,05,23,15,44,21.10
2009,05,23,15,45,21.20
2009,05,23,15,46,21.30
2009,05,23,15,47,21.30
2009,05,23,15,48,21.30
2009,05,23,15,49,21.30
2009,05,23,15,50,21.30
2009,05,23,15,51,21.30
2009,05,23,15,52,21.30
2009,05,23,15,53,21.30
2009,05,23,15,54,21.20
2009,05,23,15,55,21.10
2009,05,23,15,56,21.10
2009,05,23,15,57,21.10
2009,05,23,15,58,21.10
2009,05,23,15,59,21.00
2009,05,23,16,00,21.00
2009,05,23,16,01,20.90
2009,05,23,16,02,20.90
2009,05,23,16,03,21.00
2009,05,23,16,04,21.00
2009,05,23,16,05,21.00
2009,05,23,16,06,21.00
2009,05,23,16,07,21.00
2009,05,23,16,08,21.00
2009,05,23,16,09,21.00
2009,05,23,16,10,21.00
2009,05,23,16,11,21.00
2009,05,23,16,12,20.90
2009,05,23,16,13,20.80
2009,05,23,16,14,20.80
2009,05,23,16,15,20.70
2009,05,23,16,16,20.70
2009,05,23,16,17,20.60
2009,05,23,16,18,20.60
2009,05,23,16,19,20.60
2009,05,23,16,20,20.50
2009,05,23,16,21,20.50
2009,05,23,16,22,20.50
2009,05,23,16,23,20.40
2009,05,23,16,24,20.30
2009,05,23,16,25,20.20
2009,05,23,16,26,20.20
2009,05,23,16,27,20.20
2009,05,23,16,28,20.10
2009,05,23,16,29,20.00
2009,05,23,16,30,19.90
2009,05,23,16,31,19.90
2009,05,23,16,32,19.90
2009,05,23,16,33,19.90
2009,05,23,16,34,19.90
2009,05,23,16,35,19.80
2009,05,23,16,36,19.80
2009,05,23,16,37,19.80
2009,05,23,16,38,19.70
2009,05,23,16,39,19.70
2009,05,23,16,40,19.70
2009,05,23,16,41,19.60
2009,05,23,16,42,19.60
2009,05,23,16,43,19.60
2009,05,23,16,44,19.50
2009,05,23,16,45,19.50
2009,05,23,16,46,19.40
2009,05,23,16,47,19.40
2009,05,23,16,48,19.30
2009,05,23,16,49,19.30
2009,05,23,16,50,19.30
2009,05,23,16,51,19.30
2009,05,23,16,52,19.30
2009,05,23,16,53,19.30
2009,05,23,16,54,19.30
2009,05,23,16,55,19.30
2009,05,23,16,56,19.30
2009,05,23,16,57,19.30
2009,05,23,16,58,19.30
2009,05,23,16,59,19.40
2009,05,23,17,00,19.40
2009,05,23,17,01,19.40
2009,05,23,17,02,19.30
2009,05,23,17,03,19.30
2009,05,23,17,04,19.30
2009,05,23,17,05,19.30
2009,05,23,17,06,19.30
2009,05,23,17,07,19.30
2009,05,23,17,08,19.20
2009,05,23,17,09,19.20
2009,05,23,17,10,19.20
2009,05,23,17,11,19.20
2009,05,23,17,12,19.20
2009,05,23,17,13,19.20
2009,05,23,17,14,19.20
2009,05,23,17,15,19.30
2009,05,23,17,16,19.30
2009,05,23,17,17,19.30
2009,05,23,17,18,19.20
2009,05,23,17,19,19.20
2009,05,23,17,20,19.10
2009,05,23,17,21,19.10
2009,05,23,17,22,19.10
2009,05,23,17,23,19.10
2009,05,23,17,24,19.10
2009,05,23,17,25,19.10
2009,05,23,17,26,19.10
2009,05,23,17,27,19.10
2009,05,23,17,28,19.10
2009,05,23,17,29,19.10
2009,05,23,17,30,19.10
2009,05,23,17,31,19.10
2009,05,23,17,32,19.10
2009,05,23,17,33,19.20
2009,05,23,17,34,19.20
2009,05,23,17,35,19.20
2009,05,23,17,36,19.20
2009,05,23,17,37,19.20